Regional Weather Roundup
Issued by NWS

Home | Current Version | Previous Version | Graphics & Text | Print | Product List | Glossary On
Versions: 1 2 3 4 5 6 7 8 9 10 11 12 13 14 15 16 17 18 19 20 21 22 23 24 25 26 27
000
ASUS45 KSLC 240510
RWRUT

UTAH REGIONAL WEATHER ROUNDUP
NATIONAL WEATHER SERVICE SALT LAKE CITY UT
1100 PM MDT SUN JUL 23 2017

UTZ001>011-023>025-240600-

NORTHERN UTAH

CITY           SKY/WX    TMP DP  RH WIND       PRES   REMARKS
BRIGHAM CITY   PTCLDY    77  45  32 CALM      30.00S
HILL AFB       MOCLDY    80  42  26 SE7       30.05R
LOGAN          CLEAR     76  46  34 SE6       30.01R
OGDEN          PTCLDY    80  44  27 S10       30.01R
SALT LAKE CITY MOCLDY    85  44  23 SE8       30.00R
TOOELE VALLEY  CLOUDY    81  46  30 S10       30.01F
WENDOVER       MOCLDY    84  41  21 NW7       29.99R
HEBER CITY     MOCLDY    64  48  55 NW3       30.14R
WEST JORDAN    CLOUDY    77  55  45 SE5       30.05R

$$

UTZ011>015-024>027-240600-

CENTRAL/NORTHEAST UTAH

CITY           SKY/WX    TMP DP  RH WIND       PRES   REMARKS
PROVO AIRPORT  CLOUDY    79  52  38 SE8       30.06R
MOAB/CANYONLAN PTCLDY    84  46  26 S6        30.00R
DELTA          CLOUDY    77  48  36 E9        30.05F
PRICE          CLOUDY    72  42  34 N3        30.13S
RICHFIELD      CLEAR     73  50  43 N3        30.13R
ROOSEVELT      CLOUDY    73  45  35 W6        30.09R
VERNAL         PTCLDY    77  44  30 CALM      30.06R

$$

UTZ013>016-019>022-027-240600-

SOUTHERN UTAH

CITY           SKY/WX    TMP DP  RH WIND       PRES   REMARKS
BRYCE CANYON   CLOUDY    66  53  63 CALM      30.30R
CEDAR CITY     MOCLDY    79  48  33 S8        30.12R
MILFORD        PTCLDY    77  46  33 N12       30.07R
ST GEORGE      MOCLDY    89  56  32 SE9       29.90R
HANKSVILLE     MOCLDY    88  45  22 SE13      30.02R
KANAB          CLEAR     77  55  47 S3        30.13R
BLANDING       CLOUDY    71  50  46 NW5       30.23F

$$

REGIONAL REPORTS     COLORADO/ARIZONA

CITY           SKY/WX    TMP DP  RH WIND       PRES   REMARKS
CRAIG, CO      CLEAR     58  45  62 SE5       30.15R
GRAND JUNCTION CLEAR     80  48  32 SE18      30.07R
RIFLE, CO      CLEAR     77  46  33 E12       30.13R
MONTROSE, CO   CLOUDY    74  46  36 SE12G29   30.20R
CORTEZ, CO     LGT RAIN  67  57  70 S21       30.18F
COLORADO CITY    N/A     75  64  69 CALM      30.11S
PAGE, AZ       CLOUDY    89  53  29 VRB3      29.99R
GRAND CANYON   CLOUDY    67  56  67 S5        30.25R
KINGMAN, AZ    CLOUDY    74  65  73 E16       29.99F
FLAGSTAFF, AZ  CLOUDY    60  60 100 SW3       30.29S

$$

REGIONAL REPORTS    NEVADA/IDAHO/WYOMING

CITY           SKY/WX    TMP DP  RH WIND       PRES   REMARKS
LAS VEGAS, NV  PTCLDY    97  58  27 S16G29    29.81R HX  96
ELY, NY          N/A    N/A N/A N/A MISG      30.21R
ELKO, NV       CLOUDY    78  43  28 VRB3      30.08R
POCATELLO, ID  CLEAR     73  39  29 S9        30.00R
BURLEY, ID     MOCLDY    69  50  50 W5        29.97R
FORT BRIDGER,    N/A     68  37  32 W10       30.26S
EVANSTON, WY   CLEAR     64  42  44 SE8       30.25R
ROCK SPRINGS,  CLOUDY    72  33  24 SW10      30.20R
KEMMERER, WY     N/A     66  32  28 N8        30.26S

$$




USA.gov is the U.S. government's official web portal to all federal, state and local government web resources and services.